• In Portugal
  • List of Countries
  • For 7 days
  • Water Temperature
  • Satellite Maps
  • Weather Map
  • Weather Widgets
  • user-avatar
    Login

    Hourly Weather Lubango

    Today, 18 December, Monday

    Time Temperature Precipitation Wind Pressure Humidity
    00:00 +16°C° 4.1 mm 1 mps 609 mmHg 88%
    01:00 +15°C° 0 mm 0 mps 609 mmHg 88%
    02:00 +16°C° 2.7 mm 1 mps 609 mmHg 89%
    03:00 +16°C° 2.7 mm 1 mps 608 mmHg 89%
    04:00 +16°C° 2.7 mm 1 mps 608 mmHg 90%
    05:00 +16°C° 2.2 mm 1 mps 608 mmHg 89%
    06:00 +16°C° 2.2 mm 1 mps 609 mmHg 89%
    07:00 +16°C° 2.2 mm 1 mps 609 mmHg 88%
    08:00 +18°C° 0.5 mm 1 mps 609 mmHg 84%
    09:00 +19°C° 0.5 mm 1 mps 610 mmHg 80%
    10:00 +20°C° 0.5 mm 1 mps 610 mmHg 76%
    11:00 +21°C° 0.7 mm 1 mps 610 mmHg 72%
    12:00 +22°C° 0.7 mm 1 mps 610 mmHg 67%
    13:00 +23°C° 0.7 mm 1 mps 610 mmHg 63%
    14:00 +23°C° 1.1 mm 2 mps 609 mmHg 65%
    15:00 +21°C° 1.1 mm 2 mps 609 mmHg 66%
    16:00 +21°C° 1.1 mm 2 mps 608 mmHg 68%
    17:00 +20°C° 0.7 mm 2 mps 608 mmHg 72%
    18:00 +20°C° 0.7 mm 1 mps 608 mmHg 77%
    19:00 +19°C° 0.7 mm 1 mps 608 mmHg 81%
    20:00 +18°C° 0.1 mm 1 mps 608 mmHg 82%
    21:00 +18°C° 0.1 mm 1 mps 608 mmHg 84%
    22:00 +16°C° 0.1 mm 1 mps 608 mmHg 85%
    23:00 +16°C° 0 mm 1 mps 608 mmHg 87%

    Tomorrow, 19 December, Tuesday

    Time Temperature Precipitation Wind Pressure Humidity
    00:00 +16°C° 0 mm 1 mps 608 mmHg 88%
    01:00 +15°C° 0 mm 1 mps 607 mmHg 90%
    02:00 +15°C° 0 mm 1 mps 607 mmHg 90%
    03:00 +15°C° 0 mm 1 mps 607 mmHg 91%
    04:00 +14°C° 0 mm 0 mps 607 mmHg 91%
    05:00 +14°C° 0.3 mm 0 mps 607 mmHg 90%
    06:00 +15°C° 0.3 mm 0 mps 608 mmHg 88%
    07:00 +15°C° 0.3 mm 0 mps 608 mmHg 86%
    08:00 +19°C° 0.1 mm 1 mps 609 mmHg 77%
    09:00 +21°C° 0.1 mm 1 mps 610 mmHg 69%
    10:00 +23°C° 0.1 mm 1 mps 610 mmHg 60%
    11:00 +23°C° 0.2 mm 2 mps 610 mmHg 57%
    12:00 +24°C° 0.2 mm 2 mps 610 mmHg 54%
    13:00 +25°C° 0.2 mm 3 mps 610 mmHg 50%
    14:00 +24°C° 0.6 mm 3 mps 609 mmHg 55%
    15:00 +22°C° 0.6 mm 3 mps 609 mmHg 60%
    16:00 +21°C° 0.6 mm 3 mps 608 mmHg 64%
    17:00 +20°C° 0.9 mm 3 mps 608 mmHg 72%
    18:00 +18°C° 0.9 mm 2 mps 608 mmHg 79%
    19:00 +17°C° 0.9 mm 2 mps 608 mmHg 86%
    20:00 +17°C° 0.4 mm 2 mps 608 mmHg 87%
    21:00 +16°C° 0.4 mm 2 mps 609 mmHg 88%
    22:00 +16°C° 0.4 mm 1 mps 609 mmHg 89%
    23:00 +16°C° 0.3 mm 1 mps 609 mmHg 90%

    Day after tomorrow, 20 December, Wednesday

    Time Temperature Precipitation Wind Pressure Humidity
    00:00 +15°C° 0.3 mm 1 mps 609 mmHg 91%
    01:00 +15°C° 0.3 mm 1 mps 608 mmHg 91%
    02:00 +15°C° 0.3 mm 1 mps 608 mmHg 91%
    03:00 +15°C° 0.3 mm 1 mps 608 mmHg 92%
    04:00 +15°C° 0.3 mm 1 mps 607 mmHg 92%
    05:00 +15°C° 0.6 mm 1 mps 608 mmHg 91%
    06:00 +15°C° 0.6 mm 1 mps 608 mmHg 90%
    07:00 +15°C° 0.6 mm 1 mps 608 mmHg 89%
    08:00 +15°C° 0.9 mm 1 mps 609 mmHg 87%
    09:00 +16°C° 0.9 mm 1 mps 609 mmHg 84%
    10:00 +16°C° 0.9 mm 1 mps 609 mmHg 82%
    11:00 +18°C° 0.4 mm 1 mps 609 mmHg 79%
    12:00 +19°C° 0.4 mm 1 mps 609 mmHg 75%
    13:00 +19°C° 0.4 mm 1 mps 609 mmHg 72%
    14:00 +19°C° 0.5 mm 1 mps 609 mmHg 72%
    15:00 +19°C° 0.5 mm 1 mps 609 mmHg 73%
    16:00 +19°C° 0.5 mm 1 mps 609 mmHg 73%
    17:00 +18°C° 0.5 mm 1 mps 609 mmHg 77%
    18:00 +18°C° 0.5 mm 1 mps 609 mmHg 81%
    19:00 +16°C° 0.5 mm 1 mps 609 mmHg 86%
    20:00 +15°C° 0.2 mm 1 mps 609 mmHg 87%
    21:00 +15°C° 0.2 mm 1 mps 609 mmHg 89%
    22:00 +15°C° 0.2 mm 1 mps 609 mmHg 90%
    23:00 +14°C° 0.5 mm 0 mps 609 mmHg 91%

    21 December, Thursday

    Time Temperature Precipitation Wind Pressure Humidity
    00:00 +14°C° 0.5 mm 0 mps 609 mmHg 92%
    01:00 +13°C° 0.5 mm 0 mps 608 mmHg 92%
    02:00 +13°C° 1.2 mm 0 mps 608 mmHg 92%
    03:00 +13°C° 1.2 mm 0 mps 608 mmHg 92%
    04:00 +13°C° 1.2 mm 0 mps 608 mmHg 92%
    05:00 +13°C° 1 mm 0 mps 608 mmHg 91%
    06:00 +14°C° 1 mm 0 mps 608 mmHg 91%
    07:00 +14°C° 1 mm 0 mps 609 mmHg 90%
    08:00 +15°C° 0.3 mm 0 mps 609 mmHg 85%
    09:00 +16°C° 0.3 mm 0 mps 610 mmHg 81%
    10:00 +19°C° 0.3 mm 1 mps 610 mmHg 77%
    11:00 +19°C° 0.4 mm 1 mps 610 mmHg 73%
    12:00 +20°C° 0.4 mm 1 mps 610 mmHg 70%
    13:00 +21°C° 0.4 mm 1 mps 609 mmHg 66%
    14:00 +20°C° 0.3 mm 2 mps 609 mmHg 65%
    15:00 +20°C° 0.3 mm 2 mps 609 mmHg 65%
    16:00 +19°C° 0.3 mm 2 mps 608 mmHg 64%
    17:00 +18°C° 0.1 mm 2 mps 608 mmHg 68%
    18:00 +17°C° 0.1 mm 2 mps 609 mmHg 72%
    19:00 +17°C° 0.1 mm 2 mps 609 mmHg 76%
    20:00 +16°C° 0.1 mm 1 mps 609 mmHg 77%
    21:00 +16°C° 0.1 mm 1 mps 609 mmHg 79%
    22:00 +15°C° 0.1 mm 1 mps 609 mmHg 80%
    23:00 +15°C° 0 mm 1 mps 609 mmHg 81%

    22 December, Friday

    Time Temperature Precipitation Wind Pressure Humidity
    00:00 +15°C° 0 mm 1 mps 609 mmHg 82%
    01:00 +13°C° 0 mm 0 mps 608 mmHg 84%
    02:00 +13°C° 0 mm 0 mps 608 mmHg 84%
    03:00 +13°C° 0 mm 0 mps 608 mmHg 85%
    04:00 +13°C° 0 mm 0 mps 607 mmHg 85%
    05:00 +13°C° 0 mm 0 mps 608 mmHg 83%
    06:00 +14°C° 0 mm 0 mps 609 mmHg 80%
    07:00 +14°C° 0 mm 0 mps 609 mmHg 77%
    08:00 +16°C° 0.2 mm 0 mps 610 mmHg 74%
    09:00 +17°C° 0.2 mm 0 mps 610 mmHg 70%
    10:00 +18°C° 0.2 mm 0 mps 611 mmHg 66%
    11:00 +20°C° 0.8 mm 1 mps 610 mmHg 65%
    12:00 +21°C° 0.8 mm 1 mps 610 mmHg 65%
    13:00 +21°C° 0.8 mm 1 mps 610 mmHg 64%
    14:00 +21°C° 0.5 mm 1 mps 609 mmHg 63%
    15:00 +21°C° 0.5 mm 1 mps 609 mmHg 63%
    16:00 +21°C° 0.5 mm 1 mps 608 mmHg 62%
    17:00 +20°C° 0 mm 1 mps 608 mmHg 67%
    18:00 +19°C° 0 mm 1 mps 608 mmHg 72%
    19:00 +16°C° 0 mm 1 mps 608 mmHg 76%
    20:00 +16°C° 0.1 mm 1 mps 608 mmHg 78%
    21:00 +16°C° 0.1 mm 1 mps 608 mmHg 80%
    22:00 +15°C° 0.1 mm 1 mps 609 mmHg 81%
    23:00 +14°C° 0.1 mm 0 mps 608 mmHg 82%

    23 December, Saturday

    Time Temperature Precipitation Wind Pressure Humidity
    00:00 +14°C° 0.1 mm 0 mps 608 mmHg 83%
    01:00 +14°C° 0.1 mm 0 mps 607 mmHg 84%
    02:00 +14°C° 0.1 mm 0 mps 607 mmHg 84%
    03:00 +13°C° 0.1 mm 0 mps 607 mmHg 85%
    04:00 +13°C° 0.1 mm 0 mps 607 mmHg 85%
    05:00 +14°C° 0.2 mm 0 mps 607 mmHg 83%
    06:00 +14°C° 0.2 mm 0 mps 608 mmHg 82%
    07:00 +15°C° 0.2 mm 0 mps 608 mmHg 80%
    08:00 +16°C° 0.2 mm 0 mps 609 mmHg 74%
    09:00 +18°C° 0.2 mm 0 mps 610 mmHg 68%
    10:00 +21°C° 0.2 mm 1 mps 610 mmHg 62%
    11:00 +22°C° 0.5 mm 1 mps 610 mmHg 61%
    12:00 +23°C° 0.5 mm 1 mps 610 mmHg 59%
    13:00 +23°C° 0.5 mm 1 mps 609 mmHg 58%
    14:00 +23°C° 0.5 mm 2 mps 609 mmHg 59%
    15:00 +21°C° 0.5 mm 2 mps 608 mmHg 60%
    16:00 +21°C° 0.5 mm 2 mps 608 mmHg 61%
    17:00 +20°C° 0.3 mm 2 mps 608 mmHg 65%
    18:00 +19°C° 0.3 mm 2 mps 608 mmHg 69%
    19:00 +18°C° 0.3 mm 1 mps 608 mmHg 74%
    20:00 +18°C° 0.1 mm 1 mps 608 mmHg 75%
    21:00 +18°C° 0.1 mm 1 mps 608 mmHg 77%
    22:00 +15°C° 0.1 mm 0 mps 608 mmHg 78%
    23:00 +15°C° 0.2 mm 0 mps 608 mmHg 80%
    Show more